Weather Roundup
Issued by NWS

Home | Current Version | Previous Version | Text Only | Print | Product List | Glossary On
Versions: 1 2 3 4 5 6 7 8 9 10 11 12 13 14 15 16 17 18 19 20 21 22 23 24 25 26 27 28 29 30 31 32 33 34 35 36 37 38 39 40 41 42 43 44 45 46 47 48 49 50
000
NZUS93 KARX 292310
HRRWXR

CURRENT HOURLY OBSERVATIONS ACROSS
MUCH OF THE UPPER MISSISSIPPI VALLEY
NATIONAL WEATHER SERVICE LA CROSSE WI
600 PM CDT MON SEP 29 2014


...SOUTHEAST MINNESOTA...


CITY           SKY/WX    TMP DP  RH WIND       PRES   REMARKS
ROCHESTER      PTCLDY    55  48  77 NE10      30.09R
ROCHESTER/MAYO CLOUDY    57  47  68 N8        30.08S
WINONA         MOCLDY    55  48  76 E3        30.07F
AUSTIN         CLEAR     61  52  72 N13       30.06S
ALBERT LEA     CLEAR     63  52  67 NE10      30.06S
DODGE CENTER   PTCLDY    57  48  72 NE7       30.08S
PRESTON        CLOUDY    54  49  82 N12       30.07S
OWATONNA       PTCLDY    57  48  72 NE12      30.08S
FARIBAULT      CLOUDY    61  45  55 N8        30.10R
$$

...ELSEWHERE IN MINNESOTA...


CITY           SKY/WX    TMP DP  RH WIND       PRES   REMARKS
MINNEAPOLIS    MOCLDY    56  45  66 NE13G22   30.11S
INTNL FALLS    CLOUDY    46  40  79 E7        30.20F
DULUTH         CLOUDY    44  39  82 E10       30.19S
RED WING       MOCLDY    59  46  63 NE6       30.08S
REDWOOD FALLS  SUNNY     60  49  66 E10G18    30.08S
MANKATO        PTCLDY    57  46  67 NE14G20   30.08S
WORTHINGTON    SUNNY     64  54  68 E12       30.04F
FAIRMONT       SUNNY     66  48  52 NE10G18   30.04F
$$

...SOUTHWEST WISCONSIN...


CITY           SKY/WX    TMP DP  RH WIND       PRES   REMARKS
LA CROSSE      CLOUDY    59  50  72 N7        30.06F
PRAIRIE DU CHI MOCLDY    65  55  69 NW8       30.00R
BOSCOBEL       LGT RAIN  63  55  75 NE6       30.02R
LONE ROCK      CLOUDY    62  52  69 NE12      30.03R
PLATTEVILLE    PTCLDY    70  59  69 N16G23    29.98R
FORT MC COY    CLOUDY    55  51  88 CALM      30.07F
CAMP DOUGLAS   CLOUDY    54  54 100 N6        30.07S
VIROQUA        CLOUDY    53  52  95 N9        30.05S
WIS DELLS      CLOUDY    53  51  94 N3        30.05R
$$

...ELSEWHERE IN WISCONSIN...


CITY           SKY/WX    TMP DP  RH WIND       PRES   REMARKS
MILWAUKEE      CLOUDY    54  47  77 N16G29    30.01R
MADISON        LGT RAIN  56  53  90 NE17      30.02R
GREEN BAY      CLOUDY    51  49  92 N8        30.07R
EAU CLAIRE     CLEAR     58  43  57 N9        30.08F
BLACK RVR FLS  CLOUDY    57  48  70 NE7       30.07S
MEDFORD        CLEAR     51  41  69 NE10      30.09S
WAUSAU         MOCLDY    52  42  69 N8        30.08R
WIS RAPIDS     CLOUDY    54  45  71 N13       30.09R
MARSHFIELD     CLEAR     56  44  64 NE8       30.07S
RICE LAKE      CLEAR     53  42  65 N10       30.14S
$$

...NORTHEAST IOWA...


CITY           SKY/WX    TMP DP  RH WIND       PRES   REMARKS
DECORAH        CLEAR     59  52  77 N9G17     30.03R
MASON CITY     PTCLDY    64  56  75 NE13      30.05S
CHARLES CITY   PTCLDY    66  55  68 NE10      30.02S
OELWEIN        CLEAR     70  59  68 N13G20    29.99S
$$

...ELSEWHERE IN IOWA...


CITY           SKY/WX    TMP DP  RH WIND       PRES   REMARKS
DES MOINES     PTSUNNY   79  61  53 CALM      29.96F
IOWA CITY      MOCLDY    80  60  50 W7        29.95F
FORT DODGE     CLOUDY    66  59  77 NE9       30.02F
$$

...NORTHERN ILLINOIS...


CITY           SKY/WX    TMP DP  RH WIND       PRES   REMARKS
CHICAGO-OHARE  PTCLDY    72  57  59 NE16G23   29.93S
CHICAGO-MIDWAY PTCLDY    81  56  42 NW8       29.92S
MOLINE         NOT AVBL
ROCKFORD       PTCLDY    78  58  49 W5        29.94F
PEORIA         CLEAR     83  58  42 CALM      29.95S
$$

NOTE: "FAIR" INDICATES FEW OR NO CLOUDS BELOW 12,000 FEET WITH NO
SIGNIFICANT WEATHER AND/OR OBSTRUCTIONS TO VISIBILITY. WIND
SPEEDS ARE IN MILES-PER-HOUR.



USA.gov is the U.S. government's official web portal to all federal, state and local government web resources and services.